Miscellaneous Local Product
Issued by NWS North Platte, NE

Home | Current Version | Previous Version | Graphics & Text | Print | Product List | Glossary On
Versions: 1 2 3 4 5 6 7 8 9 10 11 12 13 14 15 16 17 18 19 20 21 22 23 24 25 26 27 28 29 30 31 32 33 34 35 36 37 38 39 40 41 42 43 44 45 46 47 48 49 50
365
AXUS43 KLBF 270410
MISLBF


WESTERN AND NORTH CENTRAL NEBRASKA HOURLY WEATHER ROUNDUP
NATIONAL WEATHER SERVICE NORTH PLATTE NE
1100 PM CDT THU MAY 26 2016

NOTE: "FAIR" INDICATES FEW OR NO CLOUDS BELOW 12,000 FEET WITH NO
SIGNIFICANT WEATHER AND/OR OBSTRUCTIONS TO VISIBILITY.

NOTE: STATIONS NOT REPORTING VARIABLES SUCH AS SKY/WEATHER OR
PRESSURE ARE PROVIDED BY RAWS AND APRS NETWORKS AND ARE NOT UNDER
NATIONAL WEATHER SERVICE QUALITY CONTROL.

...OBSERVATIONS IN AND NEAR THE EASTERN PANHANDLE OF NEBRASKA...

CITY           SKY/WX    TMP DP  RH WIND       PRES   REMARKS
PINE RIDGE     CLOUDY    53  45  74 NE6       29.84R
CHADRON        CLOUDY    47  43  86 W3        29.84R
ALLIANCE       CLOUDY    54  47  77 NW7       29.84R
SIDNEY         LGT RAIN  54  46  74 S7        29.87R
CRESCENT LAKE    N/A     59  43  55 N9          N/A
BIG SPRINGS      N/A     59  53  79 E16         N/A
$$

...OBSERVATIONS IN NORTHERN NEBRASKA AND FAR SOUTHERN SOUTH DAKOTA...

CITY           SKY/WX    TMP DP  RH WIND       PRES   REMARKS
WINNER           N/A     64  58  80 NW7       29.83R THUNDER
VALENTINE      TSTM      57  51  80 E12       29.82R
THEDFORD       LGT RAIN  59  55  87 CALM      29.81S
AINSWORTH      MOCLDY    64  58  80 E8        29.80R
O`NEILL        CLOUDY    64  57  80 SE3       29.79R
ORD            CLOUDY    61  56  83 S8        29.77R
BROKEN BOW     TSTM      63  55  75 SE13G24   29.81R
BUTTE            N/A     63  56  79 NE3         N/A
CHAMBERS         N/A     63  57  80 CALM        N/A
EWING            N/A     62  59  89 CALM        N/A
$$

...OBSERVATIONS IN SOUTHWEST NEBRASKA AND FAR NORTHEAST COLORADO...

CITY           SKY/WX    TMP DP  RH WIND       PRES   REMARKS
WRAY           LGT RAIN  52  52 100 N28G33    29.72F
IMPERIAL       CLOUDY    54  51  90 NW14      29.72F
OGALLALA       RAIN      55  52  89 E8        29.84F
NORTH PLATTE   LGT RAIN  61  51  70 VRB3      29.81R
MCCOOK         CLOUDY    55  51  86 N25G37    29.70F
LEXINGTON      TSTM      61  56  86 SE8G18    29.80R
PAXTON           N/A     63  52  67 NE10        N/A
STAPLETON        N/A     63  54  73 CALM        N/A
GOTHENBURG       N/A     63  56  78 N9          N/A
CALLAWAY         N/A     62  57  84 NE12        N/A
$$

...OBSERVATIONS IN CENTRAL LINCOLN COUNTY AREA...

CITY           SKY/WX    TMP DP  RH WIND       PRES   REMARKS
N.P. AIRPORT   LGT RAIN  61  51  70 VRB3      29.81R
N.P. DOWNTOWN    N/A     57  57 100 CALM        N/A
N.P. HILLCREST   N/A     58  55  90 W5          N/A
$$

...SOME OBSERVATIONS FROM AROUND THE REGION...

CITY           SKY/WX    TMP DP  RH WIND       PRES   REMARKS
DENVER         CLOUDY    45  43  93 SE9       29.92S
LARAMIE        CLOUDY    41  34  76 NW5       29.98R
CHEYENNE       CLOUDY    48  39  71 N8        29.94R
SCOTTSBLUFF    CLOUDY    55  43  63 NW8       29.85S
RAPID CITY     MOCLDY    53  45  74 N7        29.87R
BISMARCK       CLEAR     60  48  64 N12       29.83R
PIERRE         PTCLDY    57  50  77 N8        29.78R
SIOUX FALLS    CLOUDY    67  54  63 S16G24    29.80R
OMAHA          CLOUDY    66  53  63 SE30G44   29.77R
GRAND ISLAND   LGT RAIN  60  57  89 E37G47    29.74F
KANSAS CITY    RAIN      62  60  93 N15       29.88F FOG
WICHITA        CLOUDY    76  65  68 E9G18     29.78R
OKLAHOMA CITY  LGT RAIN  71  65  81 S20G28    29.73R
DALLAS         TSTM      73  67  81 S17G26    29.80S
AMARILLO       CLEAR     68  23  18 W10       29.73R
DODGE CITY     CLOUDY    66  55  67 S10       29.65R
HAYS           CLOUDY    34 N/A N/A N13G28    29.75R THUNDER WCI  25
$$




USA.gov is the U.S. government's official web portal to all federal, state and local government web resources and services.